TimeAKDT,TemperatureF,Dew PointF,Humidity,Sea Level PressureIn,VisibilityMPH,Wind Direction,Wind SpeedMPH,Gust SpeedMPH,PrecipitationIn,Events,Conditions,WindDirDegrees,DateUTC
12:53 AM,48.0,28.0,46,29.79,10.0,SE,16.1,-,N/A,,Overcast,140,2014-05-07 08:53:00
1:53 AM,46.9,28.0,48,29.79,10.0,SSE,15.0,20.7,N/A,,Overcast,150,2014-05-07 09:53:00
2:53 AM,46.9,28.9,50,29.79,10.0,ENE,4.6,-,N/A,,Overcast,70,2014-05-07 10:53:00
3:53 AM,46.9,28.9,50,29.80,10.0,East,8.1,-,N/A,,Overcast,90,2014-05-07 11:53:00
4:53 AM,46.0,28.9,51,29.80,10.0,East,5.8,-,N/A,,Overcast,90,2014-05-07 12:53:00
5:53 AM,45.0,30.0,56,29.79,10.0,NE,9.2,-,N/A,,Scattered Clouds,40,2014-05-07 13:53:00
6:53 AM,46.0,30.0,54,29.79,10.0,East,9.2,-,N/A,,Scattered Clouds,100,2014-05-07 14:53:00
7:53 AM,46.9,30.0,52,29.80,10.0,East,11.5,-,N/A,,Mostly Cloudy,80,2014-05-07 15:53:00
8:53 AM,48.9,30.0,48,29.80,10.0,East,9.2,-,N/A,,Overcast,100,2014-05-07 16:53:00
9:53 AM,52.0,30.9,45,29.80,10.0,ESE,13.8,19.6,N/A,,Partly Cloudy,120,2014-05-07 17:53:00
10:53 AM,54.0,30.0,40,29.79,10.0,SE,13.8,20.7,N/A,,Mostly Cloudy,140,2014-05-07 18:53:00
11:53 AM,55.0,30.0,38,29.78,10.0,SSE,15.0,20.7,N/A,,Mostly Cloudy,150,2014-05-07 19:53:00
12:53 PM,57.0,32.0,39,29.78,10.0,SSW,6.9,-,N/A,,Partly Cloudy,200,2014-05-07 20:53:00
1:53 PM,57.9,30.9,36,29.77,10.0,West,8.1,-,N/A,,Partly Cloudy,260,2014-05-07 21:53:00
2:53 PM,57.9,32.0,37,29.76,10.0,Calm,Calm,-,N/A,,Scattered Clouds,0,2014-05-07 22:53:00
3:53 PM,57.9,34.0,41,29.75,10.0,WSW,9.2,-,N/A,,Mostly Cloudy,240,2014-05-07 23:53:00
4:53 PM,57.9,34.0,41,29.74,10.0,South,8.1,-,N/A,,Mostly Cloudy,180,2014-05-08 00:53:00
5:53 PM,59.0,33.1,38,29.73,10.0,SW,8.1,-,N/A,,Overcast,230,2014-05-08 01:53:00
6:53 PM,57.9,33.1,39,29.73,10.0,West,3.5,-,N/A,,Overcast,270,2014-05-08 02:53:00
7:53 PM,59.0,34.0,39,29.72,10.0,Calm,Calm,-,N/A,,Overcast,0,2014-05-08 03:53:00
8:53 PM,55.9,33.1,42,29.72,10.0,West,5.8,-,N/A,,Mostly Cloudy,260,2014-05-08 04:53:00
9:53 PM,54.0,33.1,45,29.72,10.0,Calm,Calm,-,N/A,,Clear,0,2014-05-08 05:53:00
11:53 PM,45.0,34.0,65,29.73,10.0,Calm,Calm,-,N/A,,Clear,0,2014-05-08 07:53:00